Year,Month,Day,Hour,Minute,Value (Times are PST for temperature in C)
2010,07,03,00,00,13.20
2010,07,03,00,01,13.20
2010,07,03,00,02,13.30
2010,07,03,00,03,13.30
2010,07,03,00,04,13.30
2010,07,03,00,05,13.30
2010,07,03,00,06,13.30
2010,07,03,00,07,13.30
2010,07,03,00,08,13.40
2010,07,03,00,09,13.40
2010,07,03,00,10,13.40
2010,07,03,00,11,13.40
2010,07,03,00,12,13.40
2010,07,03,00,13,13.40
2010,07,03,00,14,13.40
2010,07,03,00,15,13.40
2010,07,03,00,16,13.50
2010,07,03,00,17,13.50
2010,07,03,00,18,13.50
2010,07,03,00,19,13.50
2010,07,03,00,20,13.60
2010,07,03,00,21,13.60
2010,07,03,00,22,13.60
2010,07,03,00,23,13.70
2010,07,03,00,24,13.70
2010,07,03,00,25,13.70
2010,07,03,00,26,13.70
2010,07,03,00,27,13.70
2010,07,03,00,28,13.70
2010,07,03,00,29,13.70
2010,07,03,00,30,13.70
2010,07,03,00,31,13.70
2010,07,03,00,32,13.70
2010,07,03,00,33,13.70
2010,07,03,00,34,13.70
2010,07,03,00,35,13.70
2010,07,03,00,36,13.70
2010,07,03,00,37,13.70
2010,07,03,00,38,13.70
2010,07,03,00,39,13.70
2010,07,03,00,40,13.70
2010,07,03,00,41,13.70
2010,07,03,00,42,13.70
2010,07,03,00,43,13.70
2010,07,03,00,44,13.70
2010,07,03,00,45,13.60
2010,07,03,00,46,13.60
2010,07,03,00,47,13.60
2010,07,03,00,48,13.60
2010,07,03,00,49,13.60
2010,07,03,00,50,13.60
2010,07,03,00,51,13.60
2010,07,03,00,52,13.50
2010,07,03,00,53,13.50
2010,07,03,00,54,13.50
2010,07,03,00,55,13.50
2010,07,03,00,56,13.50
2010,07,03,00,57,13.50
2010,07,03,00,58,13.50
2010,07,03,00,59,13.50
2010,07,03,01,00,13.40
2010,07,03,01,01,13.40
2010,07,03,01,02,13.40
2010,07,03,01,03,13.40
2010,07,03,01,04,13.40
2010,07,03,01,05,13.40
2010,07,03,01,06,13.40
2010,07,03,01,07,13.40
2010,07,03,01,08,13.40
2010,07,03,01,09,13.40
2010,07,03,01,10,13.40
2010,07,03,01,11,13.40
2010,07,03,01,12,13.40
2010,07,03,01,13,13.40
2010,07,03,01,14,13.40
2010,07,03,01,15,13.40
2010,07,03,01,16,13.40
2010,07,03,01,17,13.40
2010,07,03,01,18,13.40
2010,07,03,01,19,13.40
2010,07,03,01,20,13.40
2010,07,03,01,21,13.40
2010,07,03,01,22,13.40
2010,07,03,01,23,13.40
2010,07,03,01,24,13.40
2010,07,03,01,25,13.40
2010,07,03,01,26,13.40
2010,07,03,01,27,13.40
2010,07,03,01,28,13.40
2010,07,03,01,29,13.40
2010,07,03,01,30,13.40
2010,07,03,01,31,13.40
2010,07,03,01,32,13.40
2010,07,03,01,33,13.40
2010,07,03,01,34,13.30
2010,07,03,01,35,13.30
2010,07,03,01,36,13.20
2010,07,03,01,37,13.20
2010,07,03,01,38,13.10
2010,07,03,01,39,13.10
2010,07,03,01,40,13.00
2010,07,03,01,41,13.00
2010,07,03,01,42,13.00
2010,07,03,01,43,13.00
2010,07,03,01,44,13.00
2010,07,03,01,45,12.90
2010,07,03,01,46,12.90
2010,07,03,01,47,12.90
2010,07,03,01,48,12.90
2010,07,03,01,49,12.90
2010,07,03,01,50,12.90
2010,07,03,01,51,12.90
2010,07,03,01,52,12.90
2010,07,03,01,53,12.90
2010,07,03,01,54,12.90
2010,07,03,01,55,12.80
2010,07,03,01,56,12.80
2010,07,03,01,57,12.80
2010,07,03,01,58,12.70
2010,07,03,01,59,12.70
2010,07,03,02,00,12.70
2010,07,03,02,01,12.60
2010,07,03,02,02,12.60
2010,07,03,02,03,12.60
2010,07,03,02,04,12.50
2010,07,03,02,05,12.50
2010,07,03,02,06,12.50
2010,07,03,02,07,12.50
2010,07,03,02,08,12.60
2010,07,03,02,09,12.50
2010,07,03,02,10,12.50
2010,07,03,02,11,12.50
2010,07,03,02,12,12.50
2010,07,03,02,13,12.40
2010,07,03,02,14,12.40
2010,07,03,02,15,12.30
2010,07,03,02,16,12.30
2010,07,03,02,17,12.20
2010,07,03,02,18,12.20
2010,07,03,02,19,12.10
2010,07,03,02,20,12.10
2010,07,03,02,21,12.10
2010,07,03,02,22,12.10
2010,07,03,02,23,12.10
2010,07,03,02,24,12.10
2010,07,03,02,25,12.10
2010,07,03,02,26,12.10
2010,07,03,02,27,12.10
2010,07,03,02,28,12.10
2010,07,03,02,29,12.10
2010,07,03,02,30,12.00
2010,07,03,02,31,12.00
2010,07,03,02,32,11.90
2010,07,03,02,33,11.90
2010,07,03,02,34,11.90
2010,07,03,02,35,11.80
2010,07,03,02,36,11.80
2010,07,03,02,37,11.80
2010,07,03,02,38,11.80
2010,07,03,02,39,11.70
2010,07,03,02,40,11.70
2010,07,03,02,41,11.70
2010,07,03,02,42,11.70
2010,07,03,02,43,11.60
2010,07,03,02,44,11.60
2010,07,03,02,45,11.60
2010,07,03,02,46,11.60
2010,07,03,02,47,11.60
2010,07,03,02,48,11.60
2010,07,03,02,49,11.60
2010,07,03,02,50,11.50
2010,07,03,02,51,11.50
2010,07,03,02,52,11.40
2010,07,03,02,53,11.40
2010,07,03,02,54,11.40
2010,07,03,02,55,11.40
2010,07,03,02,56,11.30
2010,07,03,02,57,11.30
2010,07,03,02,58,11.30
2010,07,03,02,59,11.20
2010,07,03,03,00,11.20
2010,07,03,03,01,11.20
2010,07,03,03,02,11.10
2010,07,03,03,03,11.10
2010,07,03,03,04,11.10
2010,07,03,03,05,11.10
2010,07,03,03,06,11.10
2010,07,03,03,07,11.10
2010,07,03,03,08,11.00
2010,07,03,03,09,11.00
2010,07,03,03,10,11.00
2010,07,03,03,11,10.90
2010,07,03,03,12,10.90
2010,07,03,03,13,10.90
2010,07,03,03,14,10.80
2010,07,03,03,15,10.80
2010,07,03,03,16,10.80
2010,07,03,03,17,10.80
2010,07,03,03,18,10.80
2010,07,03,03,19,10.80
2010,07,03,03,20,10.70
2010,07,03,03,21,10.70
2010,07,03,03,22,10.70
2010,07,03,03,23,10.70
2010,07,03,03,24,10.70
2010,07,03,03,25,10.60
2010,07,03,03,26,10.60
2010,07,03,03,27,10.60
2010,07,03,03,28,10.60
2010,07,03,03,29,10.50
2010,07,03,03,30,10.50
2010,07,03,03,31,10.40
2010,07,03,03,32,10.40
2010,07,03,03,33,10.40
2010,07,03,03,34,10.40
2010,07,03,03,35,10.40
2010,07,03,03,36,10.40
2010,07,03,03,37,10.30
2010,07,03,03,38,10.30
2010,07,03,03,39,10.30
2010,07,03,03,40,10.30
2010,07,03,03,41,10.30
2010,07,03,03,42,10.30
2010,07,03,03,43,10.20
2010,07,03,03,44,10.20
2010,07,03,03,45,10.20
2010,07,03,03,46,10.20
2010,07,03,03,47,10.20
2010,07,03,03,48,10.20
2010,07,03,03,49,10.20
2010,07,03,03,50,10.10
2010,07,03,03,51,10.10
2010,07,03,03,52,10.10
2010,07,03,03,53,10.10
2010,07,03,03,54,10.10
2010,07,03,03,55,10.10
2010,07,03,03,56,10.10
2010,07,03,03,57,10.00
2010,07,03,03,58,10.00
2010,07,03,03,59,10.00
2010,07,03,04,00,9.90
2010,07,03,04,01,9.90
2010,07,03,04,02,9.90
2010,07,03,04,03,9.90
2010,07,03,04,04,9.90
2010,07,03,04,05,9.90
2010,07,03,04,06,9.90
2010,07,03,04,07,9.90
2010,07,03,04,08,9.90
2010,07,03,04,09,9.90
2010,07,03,04,10,9.90
2010,07,03,04,11,9.90
2010,07,03,04,12,9.90
2010,07,03,04,13,9.90
2010,07,03,04,14,9.90
2010,07,03,04,15,9.90
2010,07,03,04,16,9.90
2010,07,03,04,17,9.90
2010,07,03,04,18,9.90
2010,07,03,04,19,9.90
2010,07,03,04,20,9.90
2010,07,03,04,21,9.80
2010,07,03,04,22,9.80
2010,07,03,04,23,9.90
2010,07,03,04,24,9.90
2010,07,03,04,25,9.90
2010,07,03,04,26,9.90
2010,07,03,04,27,9.90
2010,07,03,04,28,9.90
2010,07,03,04,29,10.00
2010,07,03,04,30,10.00
2010,07,03,04,31,10.00
2010,07,03,04,32,10.10
2010,07,03,04,33,10.10
2010,07,03,04,34,10.10
2010,07,03,04,35,10.10
2010,07,03,04,36,10.20
2010,07,03,04,37,10.20
2010,07,03,04,38,10.20
2010,07,03,04,39,10.20
2010,07,03,04,40,10.20
2010,07,03,04,41,10.20
2010,07,03,04,42,10.20
2010,07,03,04,43,10.10
2010,07,03,04,44,10.10
2010,07,03,04,45,10.10
2010,07,03,04,46,10.10
2010,07,03,04,47,10.10
2010,07,03,04,48,10.10
2010,07,03,04,49,10.10
2010,07,03,04,50,10.10
2010,07,03,04,51,10.00
2010,07,03,04,52,10.00
2010,07,03,04,53,10.00
2010,07,03,04,54,9.90
2010,07,03,04,55,9.90
2010,07,03,04,56,9.90
2010,07,03,04,57,9.90
2010,07,03,04,58,9.80
2010,07,03,04,59,9.80
2010,07,03,05,00,9.80
2010,07,03,05,01,9.80
2010,07,03,05,02,9.80
2010,07,03,05,03,9.80
2010,07,03,05,04,9.80
2010,07,03,05,05,9.80
2010,07,03,05,06,9.80
2010,07,03,05,07,9.80
2010,07,03,05,08,9.80
2010,07,03,05,09,9.80
2010,07,03,05,10,9.80
2010,07,03,05,11,9.80
2010,07,03,05,12,9.80
2010,07,03,05,13,9.80
2010,07,03,05,14,9.80
2010,07,03,05,15,9.80
2010,07,03,05,16,9.90
2010,07,03,05,17,9.90
2010,07,03,05,18,9.90
2010,07,03,05,19,9.90
2010,07,03,05,20,9.90
2010,07,03,05,21,9.90
2010,07,03,05,22,9.90
2010,07,03,05,23,9.90
2010,07,03,05,24,9.90
2010,07,03,05,25,9.90
2010,07,03,05,26,9.90
2010,07,03,05,27,10.00
2010,07,03,05,28,10.00
2010,07,03,05,29,10.10
2010,07,03,05,30,10.10
2010,07,03,05,31,10.10
2010,07,03,05,32,10.20
2010,07,03,05,33,10.20
2010,07,03,05,34,10.20
2010,07,03,05,35,10.20
2010,07,03,05,36,10.20
2010,07,03,05,37,10.20
2010,07,03,05,38,10.20
2010,07,03,05,39,10.20
2010,07,03,05,40,10.20
2010,07,03,05,41,10.30
2010,07,03,05,42,10.30
2010,07,03,05,43,10.30
2010,07,03,05,44,10.30
2010,07,03,05,45,10.30
2010,07,03,05,46,10.30
2010,07,03,05,47,10.30
2010,07,03,05,48,10.30
2010,07,03,05,49,10.40
2010,07,03,05,50,10.40
2010,07,03,05,51,10.40
2010,07,03,05,52,10.40
2010,07,03,05,53,10.40
2010,07,03,05,54,10.40
2010,07,03,05,55,10.50
2010,07,03,05,56,10.50
2010,07,03,05,57,10.50
2010,07,03,05,58,10.60
2010,07,03,05,59,10.60
2010,07,03,06,00,10.60
2010,07,03,06,01,10.60
2010,07,03,06,02,10.60
2010,07,03,06,03,10.70
2010,07,03,06,04,10.70
2010,07,03,06,05,10.70
2010,07,03,06,06,10.70
2010,07,03,06,07,10.80
2010,07,03,06,08,10.80
2010,07,03,06,09,10.80
2010,07,03,06,10,10.80
2010,07,03,06,11,10.80
2010,07,03,06,12,10.90
2010,07,03,06,13,10.90
2010,07,03,06,14,10.90
2010,07,03,06,15,10.90
2010,07,03,06,16,11.00
2010,07,03,06,17,11.00
2010,07,03,06,18,11.00
2010,07,03,06,19,11.10
2010,07,03,06,20,11.10
2010,07,03,06,21,11.10
2010,07,03,06,22,11.10
2010,07,03,06,23,11.10
2010,07,03,06,24,11.10
2010,07,03,06,25,11.20
2010,07,03,06,26,11.20
2010,07,03,06,27,11.20
2010,07,03,06,28,11.20
2010,07,03,06,29,11.20
2010,07,03,06,30,11.20
2010,07,03,06,31,11.20
2010,07,03,06,32,11.20
2010,07,03,06,33,11.30
2010,07,03,06,34,11.30
2010,07,03,06,35,11.30
2010,07,03,06,36,11.30
2010,07,03,06,37,11.40
2010,07,03,06,38,11.40
2010,07,03,06,39,11.40
2010,07,03,06,40,11.50
2010,07,03,06,41,11.50
2010,07,03,06,42,11.60
2010,07,03,06,43,11.60
2010,07,03,06,44,11.70
2010,07,03,06,45,11.70
2010,07,03,06,46,11.70
2010,07,03,06,47,11.70
2010,07,03,06,48,11.70
2010,07,03,06,49,11.80
2010,07,03,06,50,11.80
2010,07,03,06,51,11.80
2010,07,03,06,52,11.80
2010,07,03,06,53,11.90
2010,07,03,06,54,11.90
2010,07,03,06,55,11.90
2010,07,03,06,56,11.90
2010,07,03,06,57,11.90
2010,07,03,06,58,12.00
2010,07,03,06,59,12.00
2010,07,03,07,00,12.10
2010,07,03,07,01,12.10
2010,07,03,07,02,12.10
2010,07,03,07,03,12.10
2010,07,03,07,04,12.10
2010,07,03,07,05,12.20
2010,07,03,07,06,12.20
2010,07,03,07,07,12.20
2010,07,03,07,08,12.20
2010,07,03,07,09,12.30
2010,07,03,07,10,12.30
2010,07,03,07,11,12.30
2010,07,03,07,12,12.30
2010,07,03,07,13,12.30
2010,07,03,07,14,12.30
2010,07,03,07,15,12.40
2010,07,03,07,16,12.40
2010,07,03,07,17,12.40
2010,07,03,07,18,12.40
2010,07,03,07,19,12.50
2010,07,03,07,20,12.50
2010,07,03,07,21,12.60
2010,07,03,07,22,12.60
2010,07,03,07,23,12.60
2010,07,03,07,24,12.60
2010,07,03,07,25,12.60
2010,07,03,07,26,12.60
2010,07,03,07,27,12.60
2010,07,03,07,28,12.70
2010,07,03,07,29,12.70
2010,07,03,07,30,12.70
2010,07,03,07,31,12.70
2010,07,03,07,32,12.80
2010,07,03,07,33,12.80
2010,07,03,07,34,12.80
2010,07,03,07,35,12.80
2010,07,03,07,36,12.80
2010,07,03,07,37,12.90
2010,07,03,07,38,12.90
2010,07,03,07,39,12.90
2010,07,03,07,40,13.00
2010,07,03,07,41,13.00
2010,07,03,07,42,13.10
2010,07,03,07,43,13.10
2010,07,03,07,44,13.20
2010,07,03,07,45,13.20
2010,07,03,07,46,13.30
2010,07,03,07,47,13.30
2010,07,03,07,48,13.30
2010,07,03,07,49,13.30
2010,07,03,07,50,13.40
2010,07,03,07,51,13.40
2010,07,03,07,52,13.50
2010,07,03,07,53,13.50
2010,07,03,07,54,13.60
2010,07,03,07,55,13.60
2010,07,03,07,56,13.70
2010,07,03,07,57,13.70
2010,07,03,07,58,13.80
2010,07,03,07,59,13.80
2010,07,03,08,00,13.80
2010,07,03,08,01,13.90
2010,07,03,08,02,13.90
2010,07,03,08,03,13.90
2010,07,03,08,04,13.90
2010,07,03,08,05,13.90
2010,07,03,08,06,13.90
2010,07,03,08,07,13.90
2010,07,03,08,08,13.90
2010,07,03,08,09,13.90
2010,07,03,08,10,13.90
2010,07,03,08,11,13.90
2010,07,03,08,12,13.90
2010,07,03,08,13,14.00
2010,07,03,08,14,14.00
2010,07,03,08,15,14.00
2010,07,03,08,16,13.90
2010,07,03,08,17,13.90
2010,07,03,08,18,13.90
2010,07,03,08,19,13.90
2010,07,03,08,20,13.90
2010,07,03,08,21,14.00
2010,07,03,08,22,14.00
2010,07,03,08,23,14.00
2010,07,03,08,24,14.00
2010,07,03,08,25,14.00
2010,07,03,08,26,14.10
2010,07,03,08,27,14.10
2010,07,03,08,28,14.10
2010,07,03,08,29,14.20
2010,07,03,08,30,14.20
2010,07,03,08,31,14.20
2010,07,03,08,32,14.30
2010,07,03,08,33,14.30
2010,07,03,08,34,14.30
2010,07,03,08,35,14.30
2010,07,03,08,36,14.30
2010,07,03,08,37,14.30
2010,07,03,08,38,14.30
2010,07,03,08,39,14.30
2010,07,03,08,40,14.40
2010,07,03,08,41,14.40
2010,07,03,08,42,14.40
2010,07,03,08,43,14.40
2010,07,03,08,44,14.50
2010,07,03,08,45,14.50
2010,07,03,08,46,14.60
2010,07,03,08,47,14.60
2010,07,03,08,48,14.70
2010,07,03,08,49,14.70
2010,07,03,08,50,14.80
2010,07,03,08,51,14.90
2010,07,03,08,52,15.00
2010,07,03,08,53,15.00
2010,07,03,08,54,15.00
2010,07,03,08,55,15.00
2010,07,03,08,56,15.00
2010,07,03,08,57,15.00
2010,07,03,08,58,15.00
2010,07,03,08,59,15.00
2010,07,03,09,00,15.00
2010,07,03,09,01,15.00
2010,07,03,09,02,15.00
2010,07,03,09,03,15.00
2010,07,03,09,04,15.00
2010,07,03,09,05,15.00
2010,07,03,09,06,15.00
2010,07,03,09,07,15.00
2010,07,03,09,08,15.00
2010,07,03,09,09,15.00
2010,07,03,09,10,15.00
2010,07,03,09,11,15.00
2010,07,03,09,12,15.00
2010,07,03,09,13,15.00
2010,07,03,09,14,15.00
2010,07,03,09,15,15.00
2010,07,03,09,16,15.00
2010,07,03,09,17,15.00
2010,07,03,09,18,15.00
2010,07,03,09,19,15.00
2010,07,03,09,20,15.00
2010,07,03,09,21,15.00
2010,07,03,09,22,15.00
2010,07,03,09,23,15.00
2010,07,03,09,24,15.00
2010,07,03,09,25,15.00
2010,07,03,09,26,15.00
2010,07,03,09,27,15.00
2010,07,03,09,28,15.00
2010,07,03,09,29,15.00
2010,07,03,09,30,15.00
2010,07,03,09,31,15.00
2010,07,03,09,32,15.10
2010,07,03,09,33,15.20
2010,07,03,09,34,15.20
2010,07,03,09,35,15.30
2010,07,03,09,36,15.40
2010,07,03,09,37,15.40
2010,07,03,09,38,15.50
2010,07,03,09,39,15.40
2010,07,03,09,40,15.40
2010,07,03,09,41,15.40
2010,07,03,09,42,15.40
2010,07,03,09,43,15.30
2010,07,03,09,44,15.30
2010,07,03,09,45,15.30
2010,07,03,09,46,15.30
2010,07,03,09,47,15.30
2010,07,03,09,48,15.40
2010,07,03,09,49,15.50
2010,07,03,09,50,15.60
2010,07,03,09,51,15.70
2010,07,03,09,52,15.70
2010,07,03,09,53,15.60
2010,07,03,09,54,15.60
2010,07,03,09,55,15.60
2010,07,03,09,56,15.70
2010,07,03,09,57,15.70
2010,07,03,09,58,15.80
2010,07,03,09,59,15.80
2010,07,03,10,00,15.80
2010,07,03,10,01,15.80
2010,07,03,10,02,15.80
2010,07,03,10,03,15.80
2010,07,03,10,04,15.80
2010,07,03,10,05,15.80
2010,07,03,10,06,15.70
2010,07,03,10,07,15.70
2010,07,03,10,08,15.70
2010,07,03,10,09,15.60
2010,07,03,10,10,15.60
2010,07,03,10,11,15.70
2010,07,03,10,12,15.70
2010,07,03,10,13,15.70
2010,07,03,10,14,15.60
2010,07,03,10,15,15.60
2010,07,03,10,16,15.50
2010,07,03,10,17,15.40
2010,07,03,10,18,15.40
2010,07,03,10,19,15.40
2010,07,03,10,20,15.40
2010,07,03,10,21,15.40
2010,07,03,10,22,15.40
2010,07,03,10,23,15.50
2010,07,03,10,24,15.50
2010,07,03,10,25,15.50
2010,07,03,10,26,15.60
2010,07,03,10,27,15.60
2010,07,03,10,28,15.70
2010,07,03,10,29,15.70
2010,07,03,10,30,15.80
2010,07,03,10,31,15.80
2010,07,03,10,32,15.80
2010,07,03,10,33,15.80
2010,07,03,10,34,15.80
2010,07,03,10,35,15.80
2010,07,03,10,36,15.80
2010,07,03,10,37,15.80
2010,07,03,10,38,15.90
2010,07,03,10,39,15.90
2010,07,03,10,40,15.90
2010,07,03,10,41,15.90
2010,07,03,10,42,15.90
2010,07,03,10,43,15.80
2010,07,03,10,44,15.80
2010,07,03,10,45,15.80
2010,07,03,10,46,15.80
2010,07,03,10,47,15.80
2010,07,03,10,48,15.80
2010,07,03,10,49,15.80
2010,07,03,10,50,15.90
2010,07,03,10,51,15.90
2010,07,03,10,52,15.90
2010,07,03,10,53,15.90
2010,07,03,10,54,15.90
2010,07,03,10,55,16.00
2010,07,03,10,56,16.00
2010,07,03,10,57,16.20
2010,07,03,10,58,16.30
2010,07,03,10,59,16.30
2010,07,03,11,00,16.30
2010,07,03,11,01,16.30
2010,07,03,11,02,16.20
2010,07,03,11,03,16.20
2010,07,03,11,04,16.20
2010,07,03,11,05,16.10
2010,07,03,11,06,16.10
2010,07,03,11,07,16.10
2010,07,03,11,08,16.10
2010,07,03,11,09,16.20
2010,07,03,11,10,16.20
2010,07,03,11,11,16.20
2010,07,03,11,12,16.30
2010,07,03,11,13,16.40
2010,07,03,11,14,16.40
2010,07,03,11,15,16.50
2010,07,03,11,16,16.70
2010,07,03,11,17,16.80
2010,07,03,11,18,16.80
2010,07,03,11,19,16.80
2010,07,03,11,20,16.80
2010,07,03,11,21,16.80
2010,07,03,11,22,16.80
2010,07,03,11,23,16.90
2010,07,03,11,24,17.00
2010,07,03,11,25,17.10
2010,07,03,11,26,17.10
2010,07,03,11,27,17.10
2010,07,03,11,28,17.00
2010,07,03,11,29,17.00
2010,07,03,11,30,17.00
2010,07,03,11,31,17.00
2010,07,03,11,32,17.00
2010,07,03,11,33,17.10
2010,07,03,11,34,17.10
2010,07,03,11,35,17.00
2010,07,03,11,36,17.00
2010,07,03,11,38,16.90
2010,07,03,11,39,16.90
2010,07,03,11,40,16.90
2010,07,03,11,41,16.90
2010,07,03,11,42,16.80
2010,07,03,11,43,16.70
2010,07,03,11,44,16.60
2010,07,03,11,45,16.40
2010,07,03,11,46,16.30
2010,07,03,11,47,16.40
2010,07,03,11,48,16.50
2010,07,03,11,49,16.60
2010,07,03,11,50,16.70
2010,07,03,11,51,16.70
2010,07,03,11,52,16.80
2010,07,03,11,53,16.80
2010,07,03,11,54,16.90
2010,07,03,11,55,16.90
2010,07,03,11,56,17.00
2010,07,03,11,57,17.00
2010,07,03,11,58,17.10
2010,07,03,11,59,17.20
2010,07,03,12,00,17.20
2010,07,03,12,01,17.20
2010,07,03,12,02,17.20
2010,07,03,12,03,17.30
2010,07,03,12,04,17.30
2010,07,03,12,05,17.40
2010,07,03,12,06,17.40
2010,07,03,12,07,17.40
2010,07,03,12,08,17.30
2010,07,03,12,09,17.20
2010,07,03,12,10,17.10
2010,07,03,12,11,17.10
2010,07,03,12,12,17.10
2010,07,03,12,13,17.20
2010,07,03,12,14,17.30
2010,07,03,12,15,17.30
2010,07,03,12,16,17.20
2010,07,03,12,17,17.10
2010,07,03,12,18,17.00
2010,07,03,12,19,16.90
2010,07,03,12,20,16.90
2010,07,03,12,21,16.90
2010,07,03,12,22,16.80
2010,07,03,12,23,16.80
2010,07,03,12,24,16.90
2010,07,03,12,25,16.90
2010,07,03,12,26,16.90
2010,07,03,12,27,17.00
2010,07,03,12,28,17.10
2010,07,03,12,29,17.10
2010,07,03,12,30,17.10
2010,07,03,12,31,17.10
2010,07,03,12,32,17.00
2010,07,03,12,33,17.00
2010,07,03,12,34,17.00
2010,07,03,12,35,16.90
2010,07,03,12,36,17.00
2010,07,03,12,37,17.10
2010,07,03,12,38,17.00
2010,07,03,12,39,17.00
2010,07,03,12,40,17.00
2010,07,03,12,41,17.10
2010,07,03,12,42,17.10
2010,07,03,12,43,17.20
2010,07,03,12,44,17.20
2010,07,03,12,45,17.30
2010,07,03,12,46,17.50
2010,07,03,12,47,17.60
2010,07,03,12,48,17.80
2010,07,03,12,49,18.00
2010,07,03,12,50,18.10
2010,07,03,12,51,18.20
2010,07,03,12,52,18.30
2010,07,03,12,53,18.30
2010,07,03,12,54,18.30
2010,07,03,12,55,18.30
2010,07,03,12,56,18.30
2010,07,03,12,57,18.30
2010,07,03,12,58,18.20
2010,07,03,12,59,18.10
2010,07,03,13,00,18.00
2010,07,03,13,01,17.90
2010,07,03,13,02,17.80
2010,07,03,13,03,17.70
2010,07,03,13,04,17.70
2010,07,03,13,05,17.70
2010,07,03,13,06,17.70
2010,07,03,13,07,17.60
2010,07,03,13,08,17.60
2010,07,03,13,09,17.60
2010,07,03,13,10,17.60
2010,07,03,13,11,17.80
2010,07,03,13,12,17.90
2010,07,03,13,13,18.10
2010,07,03,13,14,18.30
2010,07,03,13,15,18.30
2010,07,03,13,16,18.30
2010,07,03,13,17,18.40
2010,07,03,13,18,18.40
2010,07,03,13,19,18.30
2010,07,03,13,20,18.30
2010,07,03,13,21,18.30
2010,07,03,13,22,18.20
2010,07,03,13,23,18.30
2010,07,03,13,24,18.30
2010,07,03,13,25,18.40
2010,07,03,13,26,18.40
2010,07,03,13,27,18.40
2010,07,03,13,28,18.30
2010,07,03,13,29,18.20
2010,07,03,13,30,18.20
2010,07,03,13,31,18.30
2010,07,03,13,32,18.30
2010,07,03,13,33,18.40
2010,07,03,13,34,18.50
2010,07,03,13,35,18.60
2010,07,03,13,36,18.70
2010,07,03,13,37,18.70
2010,07,03,13,38,18.70
2010,07,03,13,39,18.60
2010,07,03,13,40,18.60
2010,07,03,13,41,18.60
2010,07,03,13,42,18.60
2010,07,03,13,43,18.80
2010,07,03,13,44,18.90
2010,07,03,13,45,19.10
2010,07,03,13,46,19.20
2010,07,03,13,47,19.30
2010,07,03,13,48,19.20
2010,07,03,13,49,19.10
2010,07,03,13,50,19.10
2010,07,03,13,51,19.10
2010,07,03,13,52,19.30
2010,07,03,13,53,19.30
2010,07,03,13,54,19.40
2010,07,03,13,55,19.40
2010,07,03,13,56,19.40
2010,07,03,13,57,19.40
2010,07,03,13,58,19.40
2010,07,03,13,59,19.30
2010,07,03,14,00,19.20
2010,07,03,14,01,19.10
2010,07,03,14,02,19.00
2010,07,03,14,03,18.90
2010,07,03,14,04,18.80
2010,07,03,14,05,18.80
2010,07,03,14,06,18.90
2010,07,03,14,07,18.90
2010,07,03,14,08,19.00
2010,07,03,14,09,19.10
2010,07,03,14,10,19.10
2010,07,03,14,11,19.10
2010,07,03,14,12,19.10
2010,07,03,14,13,19.10
2010,07,03,14,14,19.20
2010,07,03,14,15,19.20
2010,07,03,14,16,19.30
2010,07,03,14,17,19.30
2010,07,03,14,18,19.30
2010,07,03,14,19,19.30
2010,07,03,14,20,19.30
2010,07,03,14,21,19.30
2010,07,03,14,22,19.30
2010,07,03,14,23,19.20
2010,07,03,14,24,19.20
2010,07,03,14,25,19.20
2010,07,03,14,26,19.30
2010,07,03,14,27,19.30
2010,07,03,14,28,19.30
2010,07,03,14,29,19.30
2010,07,03,14,30,19.30
2010,07,03,14,31,19.30
2010,07,03,14,32,19.40
2010,07,03,14,33,19.30
2010,07,03,14,34,19.30
2010,07,03,14,35,19.30
2010,07,03,14,36,19.30
2010,07,03,14,37,19.30
2010,07,03,14,38,19.30
2010,07,03,14,39,19.40
2010,07,03,14,40,19.40
2010,07,03,14,41,19.30
2010,07,03,14,42,19.10
2010,07,03,14,43,19.00
2010,07,03,14,44,18.90
2010,07,03,14,45,18.90
2010,07,03,14,46,18.90
2010,07,03,14,47,18.90
2010,07,03,14,48,18.90
2010,07,03,14,49,19.00
2010,07,03,14,50,19.00
2010,07,03,14,51,19.00
2010,07,03,14,52,19.00
2010,07,03,14,53,19.00
2010,07,03,14,54,18.90
2010,07,03,14,55,18.70
2010,07,03,14,56,18.60
2010,07,03,14,57,18.50
2010,07,03,14,58,18.50
2010,07,03,14,59,18.50
2010,07,03,15,00,18.60
2010,07,03,15,01,18.50
2010,07,03,15,02,18.50
2010,07,03,15,03,18.50
2010,07,03,15,04,18.60
2010,07,03,15,05,18.70
2010,07,03,15,06,18.60
2010,07,03,15,07,18.60
2010,07,03,15,08,18.60
2010,07,03,15,09,18.70
2010,07,03,15,10,18.80
2010,07,03,15,11,18.80
2010,07,03,15,12,18.80
2010,07,03,15,13,18.80
2010,07,03,15,14,18.70
2010,07,03,15,15,18.60
2010,07,03,15,16,18.60
2010,07,03,15,17,18.40
2010,07,03,15,18,18.30
2010,07,03,15,19,18.40
2010,07,03,15,20,18.40
2010,07,03,15,21,18.50
2010,07,03,15,22,18.60
2010,07,03,15,23,18.50
2010,07,03,15,24,18.50
2010,07,03,15,25,18.40
2010,07,03,15,26,18.30
2010,07,03,15,27,18.20
2010,07,03,15,28,18.20
2010,07,03,15,29,18.20
2010,07,03,15,30,18.10
2010,07,03,15,31,18.00
2010,07,03,15,32,17.80
2010,07,03,15,33,17.70
2010,07,03,15,34,17.60
2010,07,03,15,35,17.60
2010,07,03,15,36,17.60
2010,07,03,15,37,17.60
2010,07,03,15,38,17.50
2010,07,03,15,39,17.40
2010,07,03,15,40,17.20
2010,07,03,15,41,17.10
2010,07,03,15,42,17.00
2010,07,03,15,43,17.00
2010,07,03,15,44,17.10
2010,07,03,15,45,17.10
2010,07,03,15,46,17.10
2010,07,03,15,47,17.10
2010,07,03,15,48,17.10
2010,07,03,15,49,17.10
2010,07,03,15,50,17.10
2010,07,03,15,51,17.20
2010,07,03,15,52,17.20
2010,07,03,15,53,17.40
2010,07,03,15,54,17.50
2010,07,03,15,55,17.50
2010,07,03,15,56,17.60
2010,07,03,15,57,17.50
2010,07,03,15,58,17.50
2010,07,03,15,59,17.60
2010,07,03,16,00,17.60
2010,07,03,16,01,17.70
2010,07,03,16,02,17.60
2010,07,03,16,03,17.60
2010,07,03,16,04,17.60
2010,07,03,16,05,17.60
2010,07,03,16,06,17.70
2010,07,03,16,07,17.80
2010,07,03,16,08,17.80
2010,07,03,16,09,17.80
2010,07,03,16,10,17.80
2010,07,03,16,11,17.80
2010,07,03,16,12,17.80
2010,07,03,16,13,17.70
2010,07,03,16,14,17.80
2010,07,03,16,15,17.80
2010,07,03,16,16,17.80
2010,07,03,16,17,17.70
2010,07,03,16,18,17.70
2010,07,03,16,19,17.80
2010,07,03,16,20,17.70
2010,07,03,16,21,17.70
2010,07,03,16,22,17.70
2010,07,03,16,23,17.70
2010,07,03,16,24,17.70
2010,07,03,16,25,17.70
2010,07,03,16,26,17.80
2010,07,03,16,27,17.80
2010,07,03,16,28,17.80
2010,07,03,16,29,17.80
2010,07,03,16,30,18.00
2010,07,03,16,31,18.00
2010,07,03,16,32,18.00
2010,07,03,16,33,18.00
2010,07,03,16,34,18.00
2010,07,03,16,35,18.10
2010,07,03,16,36,18.10
2010,07,03,16,37,18.20
2010,07,03,16,38,18.20
2010,07,03,16,39,18.20
2010,07,03,16,40,18.20
2010,07,03,16,41,18.20
2010,07,03,16,42,18.20
2010,07,03,16,43,18.20
2010,07,03,16,44,18.30
2010,07,03,16,45,18.20
2010,07,03,16,46,18.20
2010,07,03,16,47,18.20
2010,07,03,16,48,18.20
2010,07,03,16,49,18.30
2010,07,03,16,50,18.40
2010,07,03,16,51,18.40
2010,07,03,16,52,18.40
2010,07,03,16,53,18.40
2010,07,03,16,54,18.40
2010,07,03,16,55,18.40
2010,07,03,16,56,18.50
2010,07,03,16,57,18.60
2010,07,03,16,58,18.70
2010,07,03,16,59,18.80
2010,07,03,17,00,18.80
2010,07,03,17,01,18.80
2010,07,03,17,02,18.80
2010,07,03,17,03,18.80
2010,07,03,17,04,18.80
2010,07,03,17,05,18.70
2010,07,03,17,06,18.70
2010,07,03,17,07,18.70
2010,07,03,17,08,18.80
2010,07,03,17,09,18.80
2010,07,03,17,10,18.80
2010,07,03,17,11,18.90
2010,07,03,17,12,18.90
2010,07,03,17,13,18.90
2010,07,03,17,14,18.80
2010,07,03,17,15,18.80
2010,07,03,17,16,18.80
2010,07,03,17,17,18.70
2010,07,03,17,18,18.60
2010,07,03,17,19,18.60
2010,07,03,17,20,18.60
2010,07,03,17,21,18.60
2010,07,03,17,22,18.60
2010,07,03,17,23,18.60